Stündliche Wetter Labedzie

Heute, 16 Mai, Sonntag

Zeit Temperatur Niederschläge Wind Luftdruck Luftfeuchtigkeit
00:00 +10°C° 0.1 mm 2 m/S 741 mmHg 92%
01:00 +10°C° 0.1 mm 2 m/S 741 mmHg 93%
02:00 +10°C° 0.6 mm 2 m/S 741 mmHg 93%
03:00 +10°C° 0.6 mm 2 m/S 741 mmHg 94%
04:00 +10°C° 0.6 mm 2 m/S 741 mmHg 95%
05:00 +11°C° 0.5 mm 3 m/S 741 mmHg 93%
06:00 +12°C° 0.5 mm 3 m/S 741 mmHg 91%
07:00 +13°C° 0.5 mm 4 m/S 741 mmHg 89%
08:00 +14°C° 0.3 mm 4 m/S 741 mmHg 83%
09:00 +15°C° 0.3 mm 4 m/S 741 mmHg 77%
10:00 +17°C° 0.3 mm 3 m/S 741 mmHg 70%
11:00 +17°C° 0.3 mm 3 m/S 741 mmHg 67%
12:00 +18°C° 0.3 mm 4 m/S 741 mmHg 64%
13:00 +18°C° 0.3 mm 4 m/S 741 mmHg 62%
14:00 +18°C° 0.4 mm 3 m/S 741 mmHg 63%
15:00 +17°C° 0.4 mm 3 m/S 741 mmHg 65%
16:00 +17°C° 0.4 mm 3 m/S 741 mmHg 67%
17:00 +16°C° 0.1 mm 2 m/S 741 mmHg 71%
18:00 +15°C° 0.1 mm 1 m/S 741 mmHg 75%
19:00 +13°C° 0.1 mm 0 m/S 740 mmHg 78%
20:00 +14°C° 0 mm 1 m/S 740 mmHg 81%
21:00 +13°C° 0 mm 1 m/S 741 mmHg 83%
22:00 +12°C° 0 mm 2 m/S 741 mmHg 85%
23:00 +10°C° 0.1 mm 2 m/S 741 mmHg 87%

Morgen, 17 Mai, Montag

Zeit Temperatur Niederschläge Wind Luftdruck Luftfeuchtigkeit
00:00 +10°C° 0.1 mm 2 m/S 741 mmHg 88%
01:00 +9°C° 0.1 mm 3 m/S 741 mmHg 90%
02:00 +9°C° 0 mm 2 m/S 741 mmHg 91%
03:00 +8°C° 0 mm 2 m/S 741 mmHg 91%
04:00 +8°C° 0 mm 2 m/S 740 mmHg 92%
05:00 +10°C° 0 mm 2 m/S 741 mmHg 87%
06:00 +12°C° 0 mm 2 m/S 741 mmHg 82%
07:00 +14°C° 0 mm 2 m/S 741 mmHg 78%
08:00 +14°C° 0.1 mm 3 m/S 741 mmHg 74%
09:00 +16°C° 0.1 mm 3 m/S 741 mmHg 71%
10:00 +17°C° 0.1 mm 4 m/S 741 mmHg 68%
11:00 +15°C° 0.4 mm 4 m/S 741 mmHg 73%
12:00 +14°C° 0.4 mm 4 m/S 741 mmHg 78%
13:00 +13°C° 0.4 mm 5 m/S 741 mmHg 84%
14:00 +12°C° 0.5 mm 4 m/S 741 mmHg 86%
15:00 +12°C° 0.5 mm 4 m/S 741 mmHg 87%
16:00 +11°C° 0.5 mm 3 m/S 741 mmHg 89%
17:00 +11°C° 1 mm 3 m/S 741 mmHg 91%
18:00 +12°C° 1 mm 2 m/S 741 mmHg 93%
19:00 +10°C° 1 mm 2 m/S 740 mmHg 95%
20:00 +10°C° 2 mm 2 m/S 741 mmHg 95%
21:00 +10°C° 2 mm 3 m/S 741 mmHg 95%
22:00 +10°C° 2 mm 3 m/S 741 mmHg 95%
23:00 +10°C° 1 mm 3 m/S 741 mmHg 96%

übermorgen, 18 Mai, Dienstag

Zeit Temperatur Niederschläge Wind Luftdruck Luftfeuchtigkeit
00:00 +10°C° 1 mm 4 m/S 741 mmHg 96%
01:00 +10°C° 1 mm 4 m/S 741 mmHg 97%
02:00 +10°C° 0.1 mm 4 m/S 741 mmHg 96%
03:00 +9°C° 0.1 mm 5 m/S 741 mmHg 96%
04:00 +8°C° 0.1 mm 6 m/S 741 mmHg 96%
05:00 +9°C° 0.1 mm 6 m/S 741 mmHg 95%
06:00 +9°C° 0.1 mm 6 m/S 741 mmHg 94%
07:00 +9°C° 0.1 mm 7 m/S 742 mmHg 92%
08:00 +9°C° 0 mm 7 m/S 742 mmHg 90%
09:00 +10°C° 0 mm 7 m/S 742 mmHg 88%
10:00 +10°C° 0 mm 7 m/S 742 mmHg 85%
11:00 +11°C° 0.1 mm 7 m/S 742 mmHg 80%
12:00 +12°C° 0.1 mm 7 m/S 742 mmHg 75%
13:00 +14°C° 0.1 mm 7 m/S 743 mmHg 70%
14:00 +14°C° 0.3 mm 6 m/S 743 mmHg 71%
15:00 +14°C° 0.3 mm 6 m/S 743 mmHg 71%
16:00 +15°C° 0.3 mm 6 m/S 743 mmHg 71%
17:00 +14°C° 0.1 mm 5 m/S 743 mmHg 75%
18:00 +13°C° 0.1 mm 4 m/S 743 mmHg 79%
19:00 +12°C° 0.1 mm 3 m/S 743 mmHg 83%
20:00 +11°C° 0 mm 3 m/S 744 mmHg 86%
21:00 +10°C° 0 mm 3 m/S 744 mmHg 90%
22:00 +8°C° 0 mm 3 m/S 744 mmHg 93%
23:00 +8°C° 0 mm 3 m/S 745 mmHg 94%

19 Mai, Mittwoch

Zeit Temperatur Niederschläge Wind Luftdruck Luftfeuchtigkeit
00:00 +8°C° 0 mm 3 m/S 745 mmHg 95%
01:00 +7°C° 0 mm 3 m/S 745 mmHg 96%
02:00 +7°C° 0 mm 3 m/S 745 mmHg 96%
03:00 +7°C° 0 mm 3 m/S 745 mmHg 97%
04:00 +7°C° 0 mm 3 m/S 745 mmHg 97%
05:00 +7°C° 0 mm 4 m/S 746 mmHg 95%
06:00 +8°C° 0 mm 4 m/S 746 mmHg 92%
07:00 +9°C° 0 mm 5 m/S 747 mmHg 90%
08:00 +10°C° 0.1 mm 5 m/S 747 mmHg 87%
09:00 +10°C° 0.1 mm 5 m/S 747 mmHg 84%
10:00 +12°C° 0.1 mm 5 m/S 747 mmHg 82%
11:00 +12°C° 0.5 mm 5 m/S 747 mmHg 80%
12:00 +13°C° 0.5 mm 5 m/S 747 mmHg 78%
13:00 +13°C° 0.5 mm 5 m/S 747 mmHg 76%
14:00 +13°C° 0.7 mm 5 m/S 747 mmHg 76%
15:00 +13°C° 0.7 mm 5 m/S 747 mmHg 76%
16:00 +13°C° 0.7 mm 5 m/S 747 mmHg 77%
17:00 +12°C° 0.3 mm 4 m/S 748 mmHg 80%
18:00 +11°C° 0.3 mm 4 m/S 748 mmHg 83%
19:00 +10°C° 0.3 mm 3 m/S 748 mmHg 86%
20:00 +10°C° 0 mm 3 m/S 748 mmHg 88%
21:00 +9°C° 0 mm 3 m/S 748 mmHg 89%
22:00 +8°C° 0 mm 3 m/S 748 mmHg 91%
23:00 +7°C° 0 mm 3 m/S 748 mmHg 91%

20 Mai, Donnerstag

Zeit Temperatur Niederschläge Wind Luftdruck Luftfeuchtigkeit
00:00 +7°C° 0 mm 3 m/S 748 mmHg 91%
01:00 +7°C° 0 mm 2 m/S 748 mmHg 91%
02:00 +5°C° 0 mm 3 m/S 748 mmHg 92%
03:00 +5°C° 0 mm 3 m/S 748 mmHg 93%
04:00 +5°C° 0 mm 3 m/S 748 mmHg 94%
05:00 +7°C° 0 mm 3 m/S 748 mmHg 91%
06:00 +8°C° 0 mm 3 m/S 748 mmHg 87%
07:00 +10°C° 0 mm 4 m/S 749 mmHg 84%
08:00 +11°C° 0.2 mm 4 m/S 749 mmHg 78%
09:00 +12°C° 0.2 mm 4 m/S 749 mmHg 72%
10:00 +14°C° 0.2 mm 5 m/S 749 mmHg 66%
11:00 +14°C° 0.3 mm 5 m/S 749 mmHg 63%
12:00 +14°C° 0.3 mm 6 m/S 749 mmHg 60%
13:00 +15°C° 0.3 mm 6 m/S 749 mmHg 57%
14:00 +15°C° 0 mm 6 m/S 749 mmHg 57%
15:00 +15°C° 0 mm 6 m/S 749 mmHg 57%
16:00 +15°C° 0 mm 6 m/S 749 mmHg 57%
17:00 +13°C° 0 mm 5 m/S 750 mmHg 64%
18:00 +12°C° 0 mm 4 m/S 750 mmHg 70%
19:00 +11°C° 0 mm 4 m/S 750 mmHg 77%
20:00 +10°C° 0 mm 3 m/S 750 mmHg 81%
21:00 +8°C° 0 mm 3 m/S 751 mmHg 85%
22:00 +7°C° 0 mm 3 m/S 751 mmHg 89%
23:00 +7°C° 0 mm 3 m/S 751 mmHg 90%

21 Mai, Freitag

Zeit Temperatur Niederschläge Wind Luftdruck Luftfeuchtigkeit
00:00 +7°C° 0 mm 3 m/S 751 mmHg 91%
01:00 +5°C° 0 mm 3 m/S 751 mmHg 92%
02:00 +5°C° 0 mm 3 m/S 751 mmHg 92%
03:00 +5°C° 0 mm 3 m/S 750 mmHg 93%
04:00 +5°C° 0 mm 3 m/S 750 mmHg 93%
05:00 +7°C° 0 mm 3 m/S 750 mmHg 88%
06:00 +8°C° 0 mm 4 m/S 750 mmHg 83%
07:00 +10°C° 0 mm 4 m/S 750 mmHg 78%
08:00 +12°C° 0 mm 5 m/S 749 mmHg 72%
09:00 +13°C° 0 mm 5 m/S 749 mmHg 66%
10:00 +14°C° 0 mm 5 m/S 749 mmHg 59%
11:00 +15°C° 0 mm 4 m/S 748 mmHg 56%
12:00 +17°C° 0 mm 4 m/S 748 mmHg 53%
13:00 +17°C° 0 mm 4 m/S 747 mmHg 50%
14:00 +17°C° 0 mm 3 m/S 747 mmHg 53%
15:00 +17°C° 0 mm 3 m/S 746 mmHg 56%
16:00 +17°C° 0 mm 2 m/S 746 mmHg 58%
17:00 +16°C° 0.1 mm 2 m/S 745 mmHg 64%
18:00 +15°C° 0.1 mm 2 m/S 745 mmHg 70%
19:00 +14°C° 0.1 mm 2 m/S 745 mmHg 75%
20:00 +12°C° 0 mm 3 m/S 744 mmHg 79%
21:00 +11°C° 0 mm 3 m/S 744 mmHg 82%
22:00 +11°C° 0 mm 3 m/S 744 mmHg 85%
23:00 +11°C° 0 mm 4 m/S 743 mmHg 85%
Mehr zeigen

Wir brauchen deine Erlaubnis

Meteoprog und unser Service Anbieter werden persönliche Daten aufbewahren, so wie Cookies, Geräte Bezeichnung oder ähnliche Technologien von deinem Gerät und Prozess, so wie Persönliche Daten Inhalte und Werbungen, genauso wie social Media und den Verkehr zu analysieren.

  • Aufbewahrung und/oder Zugang zu deiner Geräte Informationen.

    Cookies, Geräte Bezeichnung oder andere Informationen, können aufbewahrt oder Zugang zu deinem Gerät erhalten, für den Grund, der oben angegeben wird.

  • Personalisierte Werbung und Inhalte, Messungen, Einblick in das Publikum und Produkt Entwicklung.

    Werbungen und Inhalte können personalisiert werden, basierend auf ein Profil. Mehr Daten können besser personalisierte Werbungen und Inhalte hinzufügen. Werbung und Inhalte können gezeigt und gemessen werden. Einblicke über das Publikum, welche die Werbung gesehen haben und den Inhalt, können abgeleitet werden. So wie Daten können genutzt werden, um es zu verbessern oder die Benutzer Erfahrung zu verbessern das System und die Software.

Wenn du “Ich stimme zu” klickst, erlaubst du uns, die Cookies zu benutzen die Geräte Bezeichnung, den Web oder ähnliche Technologien zu benutzen. Deine Settings, können in deinem Gerät bei deinem Browser geändert werden.

Für den bestimmten Zweck, berechtigten Interessen beruhen darauf, mehr als auf den Inhalt. Du kannst mehr darüber in unseren Privaten und Cookie Politik lesen.